| 02 May 2026 | La Traversée de la Baie Saint-Brieuc (22) 15KM - Nature ARCHIVES DE CETTE COURSE Tps moyen : 01:31:57 publiée avec accord |
![]() 927 |
![]() 483 |
CAM 11 JUM 41 ESM 14 SEM 101 |
M0M 54 M1M 52 M2M 49 M3M 66 M4M 41 |
M5M 32 M6M 13 M7M 6 M8M 2 M9M 1 |
CAF 3 JUF 22 ESF 10 SEF 100 |
M0F 62 M1F 66 M2F 50 M3F 71 M4F 30 |
M5F 18 M6F 8 M7F 3 | ![]() 444 |
← 1... 5 6 7 8 9 10 11... 19 →
| Classement |
Nom et Prénom |
Perf |
Allure moyenne |
Cl. Cat. |
| 351/927 | EVANNO Matthieu | 01:27:17 RP | 5:49 | 70/SEM |
| 352/927 | LEGER Antoine | 01:27:17 RP | 5:49 | 33/M0M |
| 353/927 | GRONDEIN Fabrice | 01:27:24 | 5:50 | 19/M4M |
| 354/927 | CHARRIER Hugo | 01:27:24 RP | 5:50 | 71/SEM |
| 355/927 | LETACONNOUX Sylvain (19128) | 01:27:43 | 5:51 | 27/M3M |
| 356/927 | HELLIO David | 01:27:44 | 5:51 | 31/M2M |
| 357/927 | LE NAY Kevin (19449) | 01:27:45 | 5:51 | 29/M1M |
| 358/927 | GOUEDARD Eva | 01:27:46 RP | 5:51 | 31/SEF |
| 359/927 | DEPAGNE Gwendal | 01:27:47 RP | 5:51 | 72/SEM |
| 360/927 | MISCHLER Clara | 01:27:49 | 5:51 | 32/SEF |
| 361/927 | MALEGEANT Guenaelle (2060) | 01:27:49 | 5:51 | 16/M3F |
| 362/927 | EMERY Soizic | 01:27:55 | 5:52 | 17/M3F |
| 363/927 | TEMPLIER Francoise | 01:27:56 | 5:52 | 18/M3F |
| 364/927 | TEMPLIER Isabelle | 01:27:57 RP | 5:52 | 4/M4F |
| 365/927 | VIVIER Pascale | 01:27:57 RP | 5:52 | 19/M3F |
| 366/927 | BLIVET Stephane | 01:27:58 RP | 5:52 | 28/M3M |
| 367/927 | LE GALLOU Thomas | 01:28:00 RP | 5:52 | 34/M0M |
| 368/927 | LE MAOUT Elise | 01:28:00 RP | 5:52 | 9/M2F |
| 369/927 | FONTAN Christelle | 01:28:02 RP | 5:52 | 20/M3F |
| 370/927 | LEBRUMENT Francois | 01:28:06 RP | 5:52 | 73/SEM |
| 371/927 | BLANCHARD Alexandre | 01:28:09 | 5:53 | 35/M0M |
| 372/927 | PIAUT Sylvain | 01:28:10 RP | 5:53 | 36/M0M |
| 373/927 | DONVAL Victor | 01:28:12 RP | 5:53 | 11/ESM |
| 374/927 | MARTIN Alistair | 01:28:13 RP | 5:53 | 19/JUM |
| 375/927 | NOLIER Herve | 01:28:19 RP | 5:53 | 20/M4M |
| 376/927 | BONICEL Philippe | 01:28:21 RP | 5:53 | 16/M5M |
| 377/927 | LE FORESTIER Stephane | 01:28:22 RP | 5:53 | 21/M4M |
| 378/927 | BURLOT Gilles | 01:28:27 RP | 5:54 | 32/M2M |
| 379/927 | CHEVROLLIER Aimeric | 01:28:31 RP | 5:54 | 37/M0M |
| 380/927 | BARRAIS Clement | 01:28:43 RP | 5:55 | 74/SEM |
| 381/927 | JOUAULT Mylene | 01:28:43 RP | 5:55 | 33/SEF |
| 382/927 | DINCAU Laurent | 01:28:44 RP | 5:55 | 22/M4M |
| 383/927 | LECOUEY Frederique | 01:28:47 RP | 5:55 | 21/M3F |
| 384/927 | BONNEAU Nikita | 01:28:47 RP | 5:55 | 22/M3F |
| 385/927 | JORET Patricia | 01:28:47 RP | 5:55 | 5/M4F |
| 386/927 | MIGNARD Yves | 01:28:49 RP | 5:55 | 33/M2M |
| 387/927 | CRESTEAUX Louis | 01:28:49 RP | 5:55 | 20/JUM |
| 388/927 | CORBEL Sophie | 01:28:49 RP | 5:55 | 23/M3F |
| 389/927 | GAILLARD Delphine | 01:28:50 | 5:55 | 17/M0F |
| 390/927 | SOMME Dewy (19872) | 01:28:52 RP | 5:55 | 30/M1M |
| 391/927 | FLEGEAU Raymond (11659) | 01:28:54 | 5:56 | 2/M6M |
| 392/927 | GUERIN Estelle | 01:29:01 RP | 5:56 | 24/M3F |
| 393/927 | LE REST Alexis | 01:29:03 RP | 5:56 | 21/JUM |
| 394/927 | BOSCHER Aurelien | 01:29:07 RP | 5:56 | 8/CAM |
| 395/927 | JAFFRY David | 01:29:10 | 5:57 | 29/M3M |
| 396/927 | LE LUDUEC Auguste | 01:29:12 RP | 5:57 | 22/JUM |
| 397/927 | GODIN Alexandre | 01:29:12 RP | 5:57 | 23/JUM |
| 398/927 | TREMELOT Victor | 01:29:13 RP | 5:57 | 24/JUM |
| 399/927 | PERRIGAULT Thibaud | 01:29:15 RP | 5:57 | 38/M0M |
| 400/927 | PERRIGAULT Justine | 01:29:16 RP | 5:57 | 18/M0F |
← 1... 5 6 7 8 9 10 11... 19 →
Votre Palmarès est incomplet ? Connectez-vous pour ajouter vos courses manquantes même hors Bretagne
le Résultat de cette Course





